Location: ??????????
(48.4699°N, 37.9573°E)
Time: 03:07:03
(UTC+00:00)

Lacrosse 5 - Pass Details

Date: 20 January 2021
Orbit: 715 x 724 km, 57.0° (Epoch: 22 February)

Event Time Altitude Azimuth Distance (km) Brightness Sun altitude
Rises 15:55:21 0° 305° (NW) 3,124 5.8 -17.4°
Reaches altitude 10° 15:57:44 10° 305° (NW) 2,201 5.0 -17.8°
Maximum altitude 16:02:49 89° 217° (SW) 721 1.8 -18.6°
Enters shadow 16:05:45 26° 128° (SE) 1,402 3.0 -19.1°
